Other Surface Observations
Issued by NWS Charleston, SC

Home | Current Version | Previous Version | Text Only | Print | Product List | Glossary On
Versions: 1 2 3 4 5 6 7 8 9 10 11 12 13 14 15 16 17 18 19 20 21 22 23 24 25 26 27 28 29 30 31 32 33 34 35 36 37 38 39 40 41 42 43 44 45 46 47 48 49 50
000
SXUS52 KCHS 291327
OSOCHS
MARINE OBSERVATIONS
NATIONAL WEATHER SERVICE CHARLESTON SC
900 AM EDT SAT AUG 29 2015

...DOWNTOWN CHARLESTON AND HARBOR...

CITY           SKY/WX    TMP DP  RH WIND       PRES   REMARKS
WATERFRONT PRK   N/A     78  74  87 NE8       30.13R

...LAKE MOULTRIE...

CITY           SKY/WX    TMP DP  RH WIND       PRES   REMARKS
PINOPOLIS        N/A     75  70  83 NE8       30.10R

...LAKE AND SUPPLEMENTAL COASTAL OBSERVATIONS...

STATION/POSITION TIME  TEMP    WIND        PRES    WAVE   SWELL
                       AIR SEA DIR/SP/G            HT/PER HT/PER/DIR
                 (UTC) (F)     (DEG/KT/KT) (MB)    (FT/S) (FT/S/D)
FORT PULASKI     NOT AVBL
SAPELO ISLAND    1300   75      20/  5     1020.0F
UPR LAKE MARION  NOT AVBL
WINYAH BAY       1245   73      10/  5     1021.0R
LAKE MURRAY      1300   70      30/  2/  5 1022.7R
ACE BASIN NERRS  NOT AVBL


...C-MAN AND BUOY OBSERVATIONS...

STATION/POSITION TIME  TEMP    WIND        PRES    WAVE   SWELL
                       AIR SEA DIR/SP/G            HT/PER HT/PER/DIR
                 (UTC) (F)     (DEG/KT/KT) (MB)    (FT/S) (FT/S/D)
BUOY 41004       1250   81 85   70/ 14/ 17 1019.7S   4/ 7   2/ 8
BUOY 41008       1250   83 85   80/ 10/ 12 1019.8R   3/ 6   3/ 70/ 6
FOLLY BEACH CMAN 1300   78      20/ 10/ 12 1021.1R
CAPERS NS BUOY   1208   79      50/ 14/ 17 1021.0R
FRIPP NS BUOY    1200   81      60/ 14/ 16 1020.2R
5E ST. MARYS GA  1221      86                N/A     3/ 6   2/100/11


STATION/POSITION TIME  TEMP    WIND        PRES    WAVE   SWELL
                       AIR SEA DIR/SP/G            HT/PER HT/PER/DIR
                 (UTC) (F)     (DEG/KT/KT) (MB)    (FT/S) (FT/S/D)
FRYING PAN BUOY  1250   81 81   40/ 16/ 19 1020.5R   5/ 6   2/120/11
BUOY 41025       1250   79 82   40/ 17/ 19 1020.3F   5/11   3/ 90/11
CAPE LOOKOUT NC  1300   78      20/ 16/ 18 1020.8R
BUOY 41002       1250   83 83  200/ 12/ 16 1020.2S   5/11   5/100/11
BUOY 41010       1220   83 85  110/ 10/ 12 1019.0R
ST AUGUSTINE FL  1300   81 85  340/  5/  6 1020.2R

$$



USA.gov is the U.S. government's official web portal to all federal, state and local government web resources and services.